This demonstration page uses our WeatherBlox Daily Observations layout. Learn more.

Left ArrowRight Arrow

Hourly Observations for March 11, 2019

Temp ( °F °C ) Dew Point ( °F °C ) Humidity (%) Winds ( mph kmh ) Pressure ( in mb ) Visibility ( mi km ) Precip ( " mm )
12:51 am 00:51 Mostly Cloudy 55 12.8 36 2.2 49 49 SSE 14 22 29.87 1011 10 16 N/A
1:51 am 01:51 Mostly Cloudy 52 11.1 36 2.2 55 55 E 9 15 29.85 1011 10 16 N/A
2:51 am 02:51 Mostly Cloudy 53 11.7 38 3.3 57 57 SE 12 19 29.88 1012 10 16 N/A
3:51 am 03:51 Cloudy 57 13.9 38 3.3 49 49 SSE 10 17 29.89 1012 10 16 N/A
4:51 am 04:51 Cloudy 52 11.1 44 6.7 75 75 SE 12 19 29.93 1014 10 16 N/A
5:51 am 05:51 Cloudy 52 11.1 44 6.7 75 75 E 17 28 29.92 1013 10 16 N/A
6:51 am 06:51 Cloudy 52 11.1 45 7.2 77 77 E 12 19 29.93 1014 10 16 N/A
7:51 am 07:51 Cloudy 54 12.2 46 7.8 75 75 E 10 17 29.93 1014 10 16 0.01 0.25
8:51 am 08:51 Mostly Cloudy 58 14.4 45 7.2 62 62 E 15 24 29.93 1014 10 16 N/A
9:51 am 09:51 Mostly Cloudy 60 15.6 45 7.2 58 58 E 15 24 29.94 1014 10 16 N/A
10:51 am 10:51 Sunny 64 17.8 45 7.2 50 50 SE 16 26 29.91 1013 10 16 N/A
11:51 am 11:51 Sunny 68 20 44 6.7 42 42 E 13 20 29.86 1011 10 16 N/A
12:51 pm 12:51 Mostly Sunny 72 22.2 45 7.2 38 38 VRB 7 11 29.80 1009 10 16 N/A
1:51 pm 13:51 Sunny 71 21.7 45 7.2 39 39 VRB 6 9 29.76 1008 10 16 N/A
2:51 pm 14:51 Sunny 74 23.3 43 6.1 33 33 undefined N/A 29.69 1005 10 16 N/A
3:51 pm 15:51 Sunny 77 25 42 5.6 29 29 E 10 17 29.65 1004 10 16 N/A
4:15 pm 16:15 Sunny 79 26.1 34 1.1 20 20 S 21 33 29.55 1001 10 16 N/A
4:51 pm 16:51 Sunny 78 25.6 35 1.7 21 21 S 26 43 29.65 1004 10 16 N/A
5:51 pm 17:51 Sunny 72 22.2 42 5.6 34 34 S 30 48 29.69 1005 10 16 N/A
6:51 pm 18:51 Clear 67 19.4 43 6.1 42 42 SSE 10 17 29.72 1006 10 16 N/A
7:51 pm 19:51 Mostly Cloudy 64 17.8 49 9.4 58 58 S 29 46 29.75 1007 10 16 N/A
8:51 pm 20:51 Cloudy with Light Rain 59 15 54 12.2 83 83 SSW 9 15 29.79 1009 7 11 0.01 0.25
9:51 pm 21:51 Cloudy 58 14.4 54 12.2 87 87 E 5 7 29.78 1008 10 16 0.04 1.02
10:51 pm 22:51 Cloudy 59 15 52 11.1 78 78 SE 7 11 29.78 1008 10 16 N/A
11:15 pm 23:15 Cloudy with Nearby Thunderstorms 59 15 53 11.7 81 81 SE 10 17 29.79 1009 10 16 N/A
11:35 pm 23:35 Cloudy with Light Rain 58 14.4 53 11.7 84 84 SE 7 11 29.79 1009 10 16 N/A
11:51 pm 23:51 Cloudy 59 15 53 11.7 81 81 SE 7 11 29.75 1008 10 16 N/A

Powered by AerisWeather